Location: Peebles
(55.6412°N, 3.1714°W)
Time: 22:02:12
(UTC+00:00)

RS-15 - Pass Details

Date: 07 December 2023
Orbit: 1899 x 2145 km, 64.8° (Epoch: 12 November)

Event Time Altitude Azimuth Distance (km) Brightness Sun altitude
Rises 20:03:55 0° 198° (SSW) 5,640 10.5 -35.3°
Reaches altitude 10° 20:07:27 10° 194° (SSW) 4,626 10.0 -35.8°
Enters shadow 20:15:15 43° 170° (S) 2,720 8.5 -36.9°
